Regional Weather Roundup
Issued by NWS Portland, ME

Home | Current Version | Previous Version | Text Only | Print | Product List | Glossary On
Versions: 1 2 3 4 5 6 7 8 9 10 11 12 13 14 15 16 17 18 19 20 21 22 23 24 25 26 27 28 29 30 31 32 33 34 35 36 37 38 39 40 41 42 43 44 45 46 47 48 49 50
159
ASUS41 KGYX 181110
RWRGYX
WEATHER ROUNDUP FOR MAINE AND NEW HAMPSHIRE
NATIONAL WEATHER SERVICE GRAY ME
700 AM EDT FRI AUG 18 2017

MEZ002-005-006-010-012-015-018-020-021-024-026-027-029-181200-
MAINE

CITY           SKY/WX    TMP DP  RH WIND       PRES   REMARKS
PORTLAND       CLOUDY    63  53  70 VRB6      29.97S
SANFORD        CLOUDY    60  57  89 CALM      29.97S
BAR HARBOR     MOSUNNY   56  51  84 N3        30.01
WISCASSET      MOSUNNY   60  53  77 CALM      29.99S
ROCKLAND       CLOUDY    59  57  93 CALM      29.99R
FRYEBURG       CLOUDY    58  58 100 CALM      29.99S
LEWISTONAUBURN CLOUDY    58  54  86 NW3       29.99S
AUGUSTA        CLOUDY    60  52  74 CALM      29.99S
WATERVILLE     MOSUNNY   57  54  89 NE3       29.97S
BANGOR         CLOUDY    56  52  86 CALM      30.01R
GREENVILLE       N/A     57  50  77 SE5       29.99R
MILLINOCKET    CLOUDY    54  51  90 CALM      30.02R
HOULTON        CLOUDY    51  50  96 CALM      29.99S
PRESQUE ISLE   CLOUDY    49  48  97 CALM      30.01S
FRENCHVILLE    MOSUNNY   51  49  92 CALM      30.00R
CARIBOU        CLOUDY    51  48  89 CALM      30.00R
$$

NHZ002-005-008-009-011-012-014-181200-
NEW HAMPSHIRE

CITY           SKY/WX    TMP DP  RH WIND       PRES   REMARKS
PORTSMOUTH     CLOUDY    65  57  75 NE6       29.94F
ROCHESTER      CLOUDY    64  53  67 CALM      29.96R
NASHUA         CLOUDY    64  61  90 CALM      29.95F
MANCHESTER     CLOUDY    65  56  72 SE3       29.94S
CONCORD        CLOUDY    64  59  83 CALM      29.95F
LACONIA        CLOUDY    66  54  65 VRB5      29.96S
PLYMOUTH       CLOUDY    58  57  94 CALM      29.96S
BERLIN         CLOUDY    56  52  86 CALM      29.97F
WHITEFIELD     CLOUDY    59  54  83 NW6       29.92F
JAFFREY        CLOUDY    64  61  90 CALM      29.96F
KEENE            N/A    N/A N/A N/A MISG        N/A
LEBANON        CLOUDY    63  60  90 CALM      29.91S
MT WASHINGTON  FOG       46  46 100 SW24G35     N/A  VSB 1/16
$$

VTZ005-007-008-181200-
VERMONT

CITY           SKY/WX    TMP DP  RH WIND       PRES   REMARKS
ST JOHNSBURY     N/A     58  57  97 MISG      29.91S
MONTPELIER     LGT RAIN  61  58  90 S6        29.95R
BURLINGTON     RAIN      64  61  90 SW3       29.84R FOG
$$

MAZ007-012-024-CTZ003-RIZ002-NYZ038-NYZ072-181200-
SOUTHERN NEW ENGLAND AND NY

CITY           SKY/WX    TMP DP  RH WIND       PRES   REMARKS
BOSTON         CLOUDY    68  62  81 S6        29.96S
WORCESTER      CLOUDY    63  61  93 S10       29.97S
NANTUCKET      CLOUDY    66  65  96 S8        30.00R
PROVIDENCE     CLOUDY    70  68  93 S9        29.97F
HARTFORD       CLOUDY    70  66  87 S6        29.92F
ALBANY         LGT RAIN  71  67  87 S12G18    29.83S FOG
NEW YORK CITY  CLOUDY    77  73  87 S10       29.89R
$$

ANZ081-ANZ082-ANZ150-NHZ014-MEZ023>029-181200-
COASTAL MARINE OBSERVATIONS

STATION/POSITION TIME  TEMP    WIND        PRES    WAVE
                       AIR SEA DIR/SP/G            HT/PER
                 (UTC) (F)     (DEG/KT/KT) (MB)    (FT/S)
MOUNT DESERT ROC 1100   59                 1015.7R
MATINICUS ROCK   1000   61      90/  8/  8 1014.8F
ISLE OF SHOALS   1000   66     170/  4/  5 1014.2R
JEFFREYS LEDGE   1006      66                N/A     2/ 8
CASHES LEDGE BUO 0950   67 68              1014.9    2/ 9
GEORGES BANK BUO 0950   64 63              1016.2    3/ 7
$$

.............KEY..............
   WCI - WIND CHILL
   TC  - TEMPERATURE IN CELSIUS
   VSB - VISIBILITY IN MILES
   HX  - HEAT INDEX
   FAIR- INDICATES FEW OR NO CLOUDS BELOW 12,000 FT, WITH NO
         SIGNIFICANT WEATHER AND/OR OBSTRUCTIONS TO VISIBILITY.






USA.gov is the U.S. government's official web portal to all federal, state and local government web resources and services.